Theta_e
312 314 313 315 316 315 317 320 319 318 318 317 316 317 318 317 317 319 319 316 319 318 321 330 327 327 328 330 330 333 334 336 332 333 329 325 328 324 321 319 317 316 315 313 310
313 314 315 316 316 316 317 318 318 319 318 318 318 318 318 318 320 320 315 316 316 320 328 327 327 328 329 330 331 334 334 330 324 324 323 320 323 325 320 317 316 314 311 308 307
314 315 316 316 315 316 317 317 318 319 318 319 319 318 318 322 322 318 316 317 315 322 325 325 325 327 330 329 330 328 326 323 322 322 322 320 315 317 321 313 309 307 306 305 305
315 316 316 316 315 315 316 317 317 318 319 316 314 314 321 321 322 316 315 317 317 321 324 325 326 327 328 327 326 325 321 321 320 321 321 318 312 308 308 306 305 305 304 303 303
315 317 316 316 316 317 318 319 319 319 314 314 314 315 316 319 316 314 314 315 315 318 323 326 325 326 326 324 323 320 318 317 316 316 313 310 309 307 306 305 304 303 302 302 302
316 316 317 317 317 318 318 318 317 314 315 315 314 316 319 318 313 313 313 313 314 319 321 324 325 325 325 322 324 319 315 315 314 314 314 311 308 308 305 304 303 303 303 302 301
316 316 316 316 316 316 315 315 316 316 316 314 315 316 317 315 313 313 314 314 314 316 318 317 321 325 324 322 318 316 316 315 313 312 311 310 307 304 304 303 303 303 302 302 300
316 316 315 315 316 316 316 315 315 315 315 315 315 317 315 312 313 312 313 316 314 313 313 313 316 316 319 318 319 319 318 318 312 311 311 310 311 303 302 303 302 301 301 301 300
316 315 315 316 316 316 316 316 315 315 314 314 316 317 314 313 312 311 311 313 316 314 313 313 315 316 316 317 317 316 315 316 315 310 310 309 307 302 302 302 301 301 301 300 300
315 316 315 314 314 313 314 314 315 315 315 315 315 317 313 312 311 311 311 311 315 316 316 316 316 316 313 314 315 313 314 315 315 312 309 308 304 302 301 301 301 300 300 300 299
315 316 315 314 314 315 318 318 319 318 313 313 313 313 312 310 310 311 311 314 316 316 317 316 315 312 311 311 311 312 313 314 312 310 309 307 304 302 301 301 300 300 299 299 299
314 316 315 315 315 316 318 319 317 317 317 314 312 312 312 311 312 310 311 316 317 317 317 317 312 310 309 310 312 313 313 311 310 310 308 306 305 303 302 301 300 299 299 298 299
313 316 315 316 316 319 318 316 316 316 320 317 314 311 311 311 309 308 309 314 316 316 314 313 309 309 310 310 310 313 309 308 308 308 308 308 306 304 302 300 300 299 298 299 299
314 315 316 316 317 318 319 315 316 316 323 318 315 312 312 312 311 307 307 311 314 314 315 312 310 310 310 309 307 313 307 307 308 309 313 307 310 305 302 300 299 298 298 298 299
314 314 315 316 319 319 317 316 317 319 328 318 316 311 312 311 310 310 307 312 311 311 315 310 309 307 308 307 306 308 306 307 307 311 310 309 306 303 301 299 297 297 298 298 299
313 314 315 316 317 315 315 316 318 327 327 319 313 312 314 313 311 310 310 309 309 311 310 308 308 304 304 306 306 305 307 310 310 312 313 306 303 302 300 297 297 297 298 298 298
312 313 313 314 319 315 316 320 327 327 319 317 316 311 313 313 312 310 310 307 309 315 315 309 306 305 304 307 307 305 307 312 311 310 308 304 303 302 299 297 297 297 298 298 298
312 313 313 313 314 315 318 324 326 321 319 316 314 312 313 312 312 311 312 311 306 307 313 312 314 304 303 302 302 304 303 305 306 306 305 305 303 303 298 297 297 297 298 298 299
314 315 315 313 314 314 323 325 326 321 317 317 315 315 314 313 313 313 308 308 305 304 309 308 309 304 301 302 301 302 300 301 303 304 305 305 302 300 298 296 297 297 298 299 299
316 317 314 313 313 318 323 321 319 314 314 314 317 313 317 314 316 315 312 305 305 303 303 304 309 303 302 303 302 300 299 301 302 305 302 302 301 298 296 296 296 296 297 299 299
314 321 313 312 314 321 324 319 315 310 311 314 312 313 313 314 313 312 309 305 304 304 303 303 304 305 304 301 300 300 299 299 300 300 300 300 300 297 296 296 296 296 298 299 298
315 321 312 313 321 319 320 315 309 310 309 309 310 311 312 311 313 311 309 306 304 303 303 303 305 306 301 298 298 298 298 298 302 299 300 299 299 297 296 296 296 297 298 299 298
318 318 313 314 327 319 312 309 309 309 308 308 308 309 309 310 314 311 307 303 304 305 303 303 305 310 304 301 300 299 297 296 297 298 302 298 300 297 296 296 296 297 298 298 297
318 323 317 315 314 317 314 311 308 305 306 306 306 306 308 309 309 310 307 304 302 304 300 302 303 304 307 302 299 300 297 296 296 299 298 297 296 295 295 296 296 297 297 297 297
318 322 314 323 316 316 314 311 309 308 305 306 307 307 309 314 308 309 307 303 301 300 299 301 304 301 299 297 298 297 297 296 297 296 296 295 295 295 295 295 295 297 297 296 297
321 320 312 312 312 314 312 311 310 306 308 306 309 305 306 308 306 308 305 303 303 300 300 299 305 299 300 297 296 297 297 296 296 295 295 295 294 295 295 295 296 297 296 296 297
310 309 317 306 313 318 314 310 309 306 303 305 305 306 304 301 301 300 300 300 300 301 300 300 301 302 305 296 297 299 298 296 295 295 295 294 295 295 295 295 297 297 295 296 297
Wind_Speed
11 8 6 5 5 5 8 11 12 12 11 9 8 3 4 3 2 6 14 15 14 19 12 9 6 4 1 4 3 2 1 5 1 2 7 14 4 13 14 18 22 15 16 11 7
11 8 6 4 4 6 9 11 15 11 8 5 2 5 6 5 4 17 19 17 15 12 6 6 4 1 3 2 2 2 3 4 6 8 14 20 16 10 13 17 16 15 19 21 17
10 8 6 4 5 8 10 12 11 5 3 5 7 7 6 5 7 10 23 19 17 8 6 6 4 3 4 5 6 5 7 11 12 9 4 14 22 20 4 14 16 15 13 16 17
8 7 6 6 7 8 9 9 7 2 4 7 5 4 2 5 2 15 24 20 16 10 8 5 5 2 4 6 6 13 17 12 15 13 10 15 16 19 18 13 12 13 14 17 18
7 6 7 7 8 9 10 8 4 2 6 9 4 2 3 8 7 20 21 16 12 7 8 8 4 3 5 13 16 16 13 14 15 18 18 18 18 16 15 11 12 13 15 15 17
6 6 7 7 9 10 8 6 5 8 7 10 6 5 1 11 10 15 16 15 18 10 14 14 11 10 9 7 7 12 15 13 13 12 9 14 13 5 11 9 10 11 13 17 20
5 6 7 8 8 8 6 8 5 3 5 7 3 5 16 9 11 15 12 15 14 14 11 14 7 3 6 9 14 16 13 10 5 6 7 9 15 10 8 8 10 13 14 15 21
5 5 7 6 5 5 5 4 5 6 6 4 4 4 5 7 8 19 16 4 10 13 9 8 8 10 6 6 6 6 5 5 8 8 4 3 6 9 8 9 12 14 15 17 22
4 4 5 4 3 5 6 3 1 5 8 6 4 3 4 8 18 18 14 8 9 4 10 7 9 10 1 4 6 3 11 13 3 9 8 8 8 7 7 10 12 14 16 18 20
2 4 4 5 9 13 16 17 19 11 5 2 13 6 8 10 13 18 14 10 4 3 1 4 4 9 14 12 6 13 12 12 9 7 7 7 9 7 9 10 12 15 18 20 22
1 4 5 6 8 1 5 4 6 3 23 9 8 6 7 14 5 21 24 9 1 5 4 10 12 12 13 12 6 9 10 12 17 6 11 4 7 6 4 9 14 17 20 23 24
1 4 6 4 3 6 7 3 4 5 10 10 10 9 7 12 4 25 24 3 13 10 2 7 15 10 4 12 12 7 10 14 6 3 7 8 6 4 4 10 15 19 22 24 24
1 5 7 4 2 4 7 6 4 4 1 6 6 7 6 9 9 16 17 5 9 15 19 17 9 5 7 12 17 4 13 16 18 17 3 4 8 5 4 10 16 20 23 23 25
2 4 6 4 2 2 4 2 2 4 5 7 8 7 10 1 5 13 13 4 6 9 8 9 10 10 9 11 16 7 17 16 14 8 5 3 3 6 4 13 20 25 24 24 26
4 4 4 6 2 2 2 1 4 2 4 6 5 4 7 7 4 17 14 11 14 14 4 5 9 15 12 10 14 8 25 20 8 8 6 5 7 7 7 17 26 26 27 26 27
5 4 4 2 2 2 3 3 3 5 3 3 4 8 0 12 5 6 10 8 1 7 16 10 6 8 11 9 5 22 23 6 4 5 3 6 7 8 8 18 25 27 27 28 28
4 4 3 4 2 3 1 4 6 3 2 3 4 5 4 9 8 8 8 16 8 6 9 7 15 5 19 9 1 22 20 5 4 5 6 18 8 8 9 20 22 26 28 29 29
5 3 9 6 3 1 3 5 4 3 4 2 2 2 5 9 6 9 3 6 14 11 5 7 1 14 15 14 8 13 13 5 6 9 12 10 10 5 7 21 22 24 27 28 28
7 5 4 6 2 2 5 3 5 4 3 1 2 2 4 4 4 3 8 7 10 14 8 8 4 4 8 9 15 8 7 4 6 7 7 6 7 7 21 23 25 27 28 27 27
1 3 4 4 2 4 2 5 2 3 2 2 3 4 4 7 2 4 7 6 6 8 6 6 2 5 3 3 12 8 8 2 4 8 8 10 5 10 25 27 28 30 29 27 27
3 3 4 3 2 2 1 5 5 4 3 4 3 2 5 4 6 4 6 3 6 7 6 6 2 4 2 8 10 7 6 5 2 2 4 7 5 11 21 25 29 30 29 28 29
3 2 5 2 2 2 4 4 2 4 2 3 3 5 4 4 4 4 4 6 7 6 5 6 4 4 4 5 5 10 7 5 3 6 5 3 5 19 23 23 26 29 27 28 28
1 2 4 3 3 4 5 5 4 3 3 2 3 4 2 3 1 3 5 3 5 5 5 6 2 3 6 4 4 4 4 2 1 3 3 4 6 20 21 25 26 28 27 27 29
2 2 2 3 2 7 8 6 5 3 3 4 4 1 3 4 5 4 4 2 3 4 5 4 2 4 4 4 3 2 1 3 5 4 10 10 21 23 22 26 28 28 29 27 27
3 1 3 3 3 8 5 6 9 4 3 1 3 3 2 3 3 4 4 4 2 1 1 3 1 2 3 2 2 3 3 3 3 8 5 17 19 19 23 26 27 27 27 29 29
2 4 4 3 6 10 2 6 9 6 1 3 3 4 3 4 4 2 3 0 3 2 1 2 0 3 2 2 5 5 4 6 7 8 12 15 17 19 23 24 25 27 27 28 28
3 1 2 2 6 4 3 8 9 11 6 5 10 10 10 8 9 9 9 7 5 2 1 2 1 3 2 1 3 5 2 3 9 10 10 12 18 20 23 24 26 23 27 28 27
Wind_Direction
4 17 26 42 53 95 118 129 132 119 100 102 117 53 35 53 54 48 36 333 321 322 316 297 276 272 343 61 17 276 165 106 133 311 84 9 66 69 79 63 57 60 61 66 48
15 28 30 39 70 122 133 136 137 121 87 85 358 317 313 324 346 49 353 350 339 332 327 326 37 111 89 52 21 317 127 70 16 26 78 52 41 38 70 43 48 57 47 30 33
24 22 31 53 94 127 141 145 149 130 29 352 330 315 298 286 279 16 352 355 356 339 310 309 303 343 71 44 13 7 87 86 24 21 90 90 57 33 19 50 38 38 34 31 23
29 27 42 61 100 123 138 145 161 202 336 337 340 47 69 256 17 347 346 356 2 352 308 277 250 327 53 71 80 91 50 69 50 49 72 83 90 65 62 62 54 45 31 27 22
34 47 61 75 96 114 124 135 129 51 49 27 37 34 265 73 19 341 352 357 0 14 22 353 18 17 79 93 87 98 103 87 85 84 84 85 73 75 66 59 52 40 30 21 10
49 64 74 88 100 105 110 114 108 113 16 40 74 46 164 73 350 352 6 13 19 42 49 40 38 58 69 27 21 100 105 100 87 85 89 88 60 77 58 45 39 25 19 7 5
63 72 88 97 98 97 102 116 76 354 358 43 95 67 61 46 9 357 358 19 29 44 64 42 26 64 98 92 107 126 113 119 65 102 115 142 67 60 42 33 25 13 10 2 360
72 86 105 92 94 95 109 131 62 40 9 8 31 23 63 11 2 7 3 24 22 39 63 43 63 75 45 110 172 245 245 259 63 17 106 250 79 62 40 25 22 11 7 358 356
82 108 105 75 91 94 101 122 30 10 28 30 2 322 58 8 11 360 359 351 330 14 49 56 71 65 95 266 219 185 341 345 110 51 6 350 93 64 30 28 14 2 358 357 350
98 134 118 94 102 105 94 94 74 32 336 359 17 136 45 355 349 354 358 347 346 304 112 48 62 59 36 20 19 333 332 330 329 18 350 66 95 76 46 23 1 354 357 350 347
135 168 160 136 139 107 344 264 218 105 47 59 28 63 21 347 335 8 353 322 326 52 78 46 63 42 33 24 346 307 302 320 345 63 324 81 123 92 37 17 5 1 352 348 345
165 183 190 184 229 316 332 348 38 114 85 56 53 57 31 340 0 10 2 47 40 47 155 117 53 28 22 13 335 333 347 345 318 308 321 121 128 114 26 21 8 355 349 350 345
200 190 198 211 320 10 65 79 82 343 155 59 54 27 6 1 35 358 6 6 24 47 52 62 25 4 13 17 354 59 1 338 314 315 143 191 163 197 100 14 358 350 352 350 346
147 179 194 199 245 133 86 121 13 338 211 22 10 34 355 327 65 25 8 340 52 35 59 59 23 15 20 21 354 308 354 321 322 320 348 198 2 134 13 359 354 351 351 346 344
144 154 172 171 44 202 143 331 327 258 241 14 24 330 17 59 325 20 14 45 57 26 252 52 31 18 26 1 352 325 316 289 284 286 307 99 298 106 46 355 354 347 347 345 341
147 146 134 133 66 181 155 296 283 231 83 72 16 355 119 35 43 3 28 48 42 66 74 74 70 35 356 315 338 333 325 82 193 257 238 34 338 81 22 4 350 345 341 341 339
139 146 151 139 109 159 313 256 252 342 180 64 12 6 58 25 41 29 52 47 32 333 32 129 51 91 11 356 191 2 357 353 346 339 4 358 312 61 19 7 356 343 340 339 339
122 120 81 95 109 63 259 243 281 38 37 85 334 6 56 355 52 27 54 49 29 355 319 346 264 21 18 32 322 357 12 31 319 341 315 300 340 87 359 5 355 344 339 339 339
81 95 72 10 63 354 262 255 28 43 27 316 241 275 99 65 349 83 54 39 22 12 9 348 82 118 33 15 13 346 22 338 289 286 296 352 65 160 1 357 349 344 342 338 336
25 124 52 0 9 270 270 74 86 49 343 279 354 352 20 18 342 41 35 14 11 19 341 20 277 34 35 254 55 47 352 6 325 346 320 338 28 348 350 350 346 344 340 339 337
275 187 5 6 347 242 23 71 111 69 1 353 44 78 56 29 20 48 33 71 9 353 338 344 272 101 244 32 11 11 25 9 273 14 310 316 34 5 351 348 343 338 338 338 340
294 195 348 15 162 31 96 95 85 107 77 63 58 47 49 40 52 75 74 40 3 340 6 15 319 14 52 101 44 42 27 3 1 338 308 261 291 19 352 342 342 335 338 341 330
302 78 19 327 160 108 126 99 70 137 55 78 88 25 52 80 86 62 77 37 16 15 13 0 54 293 175 188 186 41 24 18 225 243 271 310 293 357 336 341 339 335 340 334 343
246 145 95 76 348 143 142 137 116 54 88 68 105 118 137 95 42 121 105 101 25 39 352 293 3 9 340 354 337 309 338 332 324 286 324 286 326 331 344 337 336 338 339 338 342
356 77 2 146 146 139 105 142 137 128 79 127 107 62 62 105 105 99 102 140 115 48 343 332 319 5 24 41 289 320 271 261 247 308 295 313 320 337 337 333 334 338 330 345 342
152 143 75 62 113 125 137 160 143 120 353 117 143 100 50 79 34 126 132 305 43 120 27 2 355 299 231 271 293 263 238 278 294 305 304 311 311 346 327 330 338 333 349 343 341
117 95 139 210 164 185 131 147 151 131 54 49 123 110 82 77 82 79 76 78 79 18 71 344 336 302 2 327 301 232 236 283 318 327 317 313 327 330 331 335 334 336 347 342 343